{"data":{"norad_id":51633,"epoch":"2026-05-25T03:03:46.421568Z","epoch_age_seconds":61132,"freshness":"FRESH","line1":"1 51633U 22012M   26145.12762062  .00000015  00000+0  57811-5 0  9991","line2":"2 51633  87.9161  10.4298 0001683  78.4707 281.6614 13.17649290210640","mean_motion":13.1764929,"eccentricity":0.0001683,"inclination_deg":87.9161,"raan_deg":10.4298,"arg_perigee_deg":78.4707,"mean_anomaly_deg":281.6614,"bstar":5.7811e-6,"rev_number":21064,"period_min":109.28552923214,"perigee_km":1192.437806665,"apogee_km":1194.9864910886,"semimajor_km":7571.8491488768,"source":"CELESTRAK","updated_at":"2026-05-25T13:38:22.578233Z"}}